Regional Weather Roundup
Issued by NWS Green Bay, WI

Home | Current Version | Previous Version | Graphics & Text | Print | Product List | Glossary Off
Versions: 1 2 3 4 5 6 7 8 9 10 11 12 13 14 15 16 17 18 19 20 21 22 23 24 25 26 27 28 29 30 31 32 33 34 35 36 37 38 39 40 41 42 43 44 45 46 47 48 49 50

000
ASUS43 KGRB 202311
RWRGRB

NORTH-CENTRAL AND NORTHEAST WISCONSIN REGIONAL WEATHER ROUNDUP
NATIONAL WEATHER SERVICE GREEN BAY WI
500 PM CST SAT JAN 20 2018

WIZ005-009-010>012-018-019-210000-
NORTH CENTRAL WISCONSIN

CITY           SKY/WX    TMP DP  RH WIND       PRES   REMARKS
IRONWOOD       MOCLDY    39  29  67 SW3       29.86R
MANITOWISH WTR FAIR      33  31  94 S3        29.85S
ARBOR VITAE    FAIR      37  33  87 CALM      29.86R
EAGLE RIVER    FAIR      32  32  99 CALM      29.86R
LAND O LAKES   FAIR      33  31  90 CALM      29.88R
RHINELANDER    CLOUDY    36  31  82 CALM      29.87R
PHILLIPS       CLOUDY    36  31  84 SW5       29.87R
ANTIGO         CLOUDY    32  31  96 S3        29.89R
TOMAHAWK       CLOUDY    33  30  87 CALM      29.88S
MERRILL        CLOUDY    38  32  79 CALM      29.89R
$$

WIZ013-073-210000-
NORTHEAST WISCONSIN

CITY           SKY/WX    TMP DP  RH WIND       PRES   REMARKS
IRON MOUNTAIN  CLOUDY    36  30  79 CALM      29.87R
MARINETTE      CLOUDY    39  29  67 CALM      29.93R
OCONTO         FAIR      37  29  74 S3        29.92R
$$

WIZ017-030-035>037-045-210000-
CENTRAL WISCONSIN

CITY           SKY/WX    TMP DP  RH WIND       PRES   REMARKS
MEDFORD        MOCLDY    34  30  85 S3        29.89R
WAUSAU         MOCLDY    38  30  73 CALM      29.88R
MOSINEE        CLOUDY    37  30  75 S5        29.90R
MARSHFIELD     MOCLDY    37  30  75 CALM      29.88R
WISC RAPIDS    FAIR      37  28  70 CALM      29.92R
STEVENS POINT  FAIR      35  29  80 CALM      29.91R
WAUPACA        FAIR      40  32  71 CALM      29.92R
SHAWANO        FAIR      42  31  63 CALM      29.91R
CLINTONVILLE   FAIR      37  30  75 S3        29.91R
WAUTOMA        FAIR      38  31  76 CALM      29.92S
$$

WIZ038-039-048-051-210000-
FOX VALLEY

CITY           SKY/WX    TMP DP  RH WIND       PRES   REMARKS
NWS GREEN BAY  FAIR      38  30  73 S3        29.92S
APPLETON       MOCLDY    39  28  65 CALM      29.90R
OSHKOSH        FAIR      37  30  75 CALM      29.92R
FOND DU LAC    FAIR      39  28  64 CALM      29.92R
$$

WIZ022-050-052-210000-
EAST CENTRAL WISCONSIN

CITY           SKY/WX    TMP DP  RH WIND       PRES   REMARKS
EPHRAIM        CLOUDY    36  29  75 CALM      29.91R
WASHINGTON ISL CLOUDY    33  30  89 CALM      29.91R
STURGEON BAY   CLOUDY    38  29  70 CALM      29.93R
MANITOWOC      FAIR      37  31  78 S7        29.93F
SHEBOYGAN      FAIR      37  31  78 S5        29.93R
$$

LMZ563-521-522-541>543-210000-
LAKESHORE

STATION/POSITION TIME  TEMP    WIND        PRES    VSBY  WAVE
                       AIR SEA DIR/SP/G                  HT/PER
                 (UTC) (F)     (DEG/KT/KT) (MB)    (MI)  (FT/S)
SHEBOYGAN LKSHOR 2300   38     180/  8/  8 1014.2R
KEWAUNEE LKSHORE 2242   35     210/  2/  3 1012.7S
NORTHPORT PIER   2240   37        CALM     1012.9S
MENOMINEE LKSHOR 2242   37     190/  4/  5 1012.6R
$$




USA.gov is the U.S. government's official web portal to all federal, state and local government web resources and services.